This is the latest recevied weather packets stored in our database for station/object WC4PEM-11. If no packets are shown the sender has not sent any weather packets the latest 10 day(s).
| Time | Temp. | Humidity | Pressure | Rain* | Wind** | Luminosity | Snow |
|---|---|---|---|---|---|---|---|
| 1787609903 | 30° C | 73% | 1015.2 hPa | 0 mm | - | - | - |
| 1787609603 | 30° C | 73% | 1015.2 hPa | 0 mm | - | - | - |
| 1787609303 | 30.56° C | 73% | 1015.3 hPa | 0 mm | - | - | - |
| 1787609003 | 30.56° C | 72% | 1015.4 hPa | 0 mm | - | - | - |
| 1787608822 | 31.11° C | 70% | 1015.4 hPa | 0 mm | - | - | - |
| 1787608703 | 31.11° C | 70% | 1015.4 hPa | 0 mm | - | - | - |
| 1787608403 | 31.67° C | 72% | 1015.3 hPa | 0 mm | - | - | - |
| 1787608211 | 31.67° C | 72% | 1015.3 hPa | 0 mm | - | - | - |
| 1787608103 | 31.67° C | 72% | 1015.3 hPa | 0 mm | - | - | - |
| 1787607803 | 31.67° C | 71% | 1015.2 hPa | 0 mm | - | - | - |
| 1787607503 | 31.67° C | 72% | 1015.2 hPa | 0 mm | - | - | - |
| 1787607203 | 31.67° C | 70% | 1015.1 hPa | 0 mm | - | - | - |
| 1787607019 | 31.67° C | 66% | 1015.1 hPa | 0 mm | - | - | - |
| 1787606903 | 31.67° C | 66% | 1015.1 hPa | 0 mm | - | - | - |
| 1787606603 | 31.67° C | 66% | 1015.3 hPa | 0 mm | - | - | - |
| 1787606303 | 31.67° C | 66% | 1015.3 hPa | 0 mm | - | - | - |
| 1787606125 | 31.67° C | 67% | 1015.1 hPa | 0 mm | - | - | - |
| 1787606003 | 31.67° C | 67% | 1015.1 hPa | 0 mm | - | - | - |
| 1787605703 | 31.67° C | 66% | 1015.3 hPa | 0 mm | - | - | - |
| 1787605403 | 31.67° C | 67% | 1015.2 hPa | 0 mm | - | - | - |
| 1787605211 | 31.67° C | 67% | 1015.1 hPa | 0 mm | - | - | - |
| 1787605103 | 31.67° C | 67% | 1015.1 hPa | 0 mm | - | - | - |
| 1787604803 | 31.67° C | 66% | 1015.3 hPa | 0 mm | - | - | - |
| 1787604503 | 32.22° C | 67% | 1015.2 hPa | 0 mm | - | - | - |
| 1787604203 | 31.67° C | 68% | 1015.3 hPa | 0 mm | - | - | - |
* Rain latest hour (hover to see other rain measurements)
** Current wind speed in m/s (hover to see current wind gust speed)